• Em Portugal
  • Lista de países
  • Para 7 dias
  • Temperatura da água
  • Mapas de satélite
  • Mapa do tempo
  • Widgets de tempo
  • user-avatar
    Iniciar Sessão

    Previsão horária em Río Gallegos

    Hoje, 15 Dezembro, Sexta-feira

    Tempo Temperatura Precipitação Vento Pressão Humidade
    00:00 +5°C° 0 mm 7 m/s 745 mmHg 66%
    01:00 +5°C° 0 mm 6 m/s 745 mmHg 70%
    02:00 +5°C° 0 mm 6 m/s 744 mmHg 69%
    03:00 +5°C° 0 mm 6 m/s 744 mmHg 69%
    04:00 +6°C° 0 mm 5 m/s 744 mmHg 69%
    05:00 +7°C° 0 mm 5 m/s 743 mmHg 65%
    06:00 +8°C° 0 mm 5 m/s 742 mmHg 62%
    07:00 +9°C° 0 mm 5 m/s 742 mmHg 56%
    08:00 +9°C° 0,5 mm 6 m/s 741 mmHg 59%
    09:00 +8°C° 0,5 mm 6 m/s 740 mmHg 61%
    10:00 +8°C° 0,5 mm 7 m/s 739 mmHg 64%
    11:00 +9°C° 0,3 mm 7 m/s 738 mmHg 63%
    12:00 +10°C° 0,3 mm 7 m/s 737 mmHg 63%
    13:00 +10°C° 0,3 mm 6 m/s 736 mmHg 62%
    14:00 +10°C° 0,2 mm 6 m/s 735 mmHg 65%
    15:00 +10°C° 0,2 mm 6 m/s 734 mmHg 67%
    16:00 +10°C° 0,2 mm 5 m/s 733 mmHg 69%
    17:00 +10°C° 0,5 mm 6 m/s 733 mmHg 70%
    18:00 +10°C° 0,5 mm 6 m/s 732 mmHg 71%
    19:00 +10°C° 0,5 mm 6 m/s 732 mmHg 73%
    20:00 +9°C° 0,2 mm 7 m/s 732 mmHg 71%
    21:00 +7°C° 0,2 mm 8 m/s 732 mmHg 70%
    22:00 +6°C° 0,2 mm 9 m/s 732 mmHg 69%
    23:00 +4°C° 0,3 mm 12 m/s 732 mmHg 70%

    Amanhã, 16 Dezembro, Sábado

    Tempo Temperatura Precipitação Vento Pressão Humidade
    00:00 +3°C° 0,3 mm 14 m/s 733 mmHg 72%
    01:00 +1°C° 0,3 mm 16 m/s 733 mmHg 73%
    02:00 +1°C° 0,4 mm 16 m/s 735 mmHg 72%
    03:00 +1°C° 0,4 mm 15 m/s 736 mmHg 71%
    04:00 +1°C° 0,4 mm 14 m/s 737 mmHg 70%
    05:00 +1°C° 0 mm 14 m/s 738 mmHg 66%
    06:00 +3°C° 0 mm 14 m/s 739 mmHg 62%
    07:00 +4°C° 0 mm 14 m/s 740 mmHg 58%
    08:00 +5°C° 0,1 mm 13 m/s 740 mmHg 54%
    09:00 +7°C° 0,1 mm 13 m/s 741 mmHg 49%
    10:00 +8°C° 0,1 mm 13 m/s 742 mmHg 45%
    11:00 +8°C° 0,1 mm 13 m/s 742 mmHg 44%
    12:00 +8°C° 0,1 mm 13 m/s 743 mmHg 43%
    13:00 +8°C° 0,1 mm 13 m/s 743 mmHg 41%
    14:00 +8°C° 0,1 mm 13 m/s 744 mmHg 40%
    15:00 +8°C° 0,1 mm 14 m/s 745 mmHg 40%
    16:00 +6°C° 0,1 mm 14 m/s 745 mmHg 39%
    17:00 +6°C° 0 mm 14 m/s 746 mmHg 41%
    18:00 +5°C° 0 mm 13 m/s 747 mmHg 42%
    19:00 +5°C° 0 mm 13 m/s 748 mmHg 44%
    20:00 +4°C° 0 mm 12 m/s 749 mmHg 48%
    21:00 +3°C° 0 mm 11 m/s 750 mmHg 53%
    22:00 +2°C° 0 mm 11 m/s 751 mmHg 57%
    23:00 +2°C° 0 mm 10 m/s 751 mmHg 60%

    Depois de amanhã, 17 Dezembro, Domingo

    Tempo Temperatura Precipitação Vento Pressão Humidade
    00:00 +2°C° 0 mm 10 m/s 751 mmHg 64%
    01:00 +2°C° 0 mm 9 m/s 752 mmHg 67%
    02:00 +2°C° 0 mm 9 m/s 752 mmHg 67%
    03:00 +2°C° 0 mm 8 m/s 752 mmHg 67%
    04:00 +4°C° 0 mm 8 m/s 752 mmHg 66%
    05:00 +5°C° 0,1 mm 8 m/s 751 mmHg 62%
    06:00 +6°C° 0,1 mm 9 m/s 751 mmHg 58%
    07:00 +7°C° 0,1 mm 9 m/s 751 mmHg 53%
    08:00 +8°C° 0,1 mm 9 m/s 750 mmHg 50%
    09:00 +11°C° 0,1 mm 10 m/s 749 mmHg 48%
    10:00 +13°C° 0,1 mm 10 m/s 748 mmHg 45%
    11:00 +13°C° 0,1 mm 10 m/s 748 mmHg 44%
    12:00 +14°C° 0,1 mm 11 m/s 747 mmHg 43%
    13:00 +14°C° 0,1 mm 11 m/s 746 mmHg 43%
    14:00 +14°C° 0 mm 12 m/s 746 mmHg 42%
    15:00 +14°C° 0 mm 14 m/s 746 mmHg 41%
    16:00 +14°C° 0 mm 15 m/s 746 mmHg 40%
    17:00 +13°C° 0 mm 15 m/s 746 mmHg 42%
    18:00 +10°C° 0 mm 15 m/s 747 mmHg 45%
    19:00 +9°C° 0 mm 15 m/s 747 mmHg 47%
    20:00 +8°C° 0 mm 14 m/s 748 mmHg 51%
    21:00 +6°C° 0 mm 14 m/s 748 mmHg 55%
    22:00 +5°C° 0 mm 13 m/s 748 mmHg 59%
    23:00 +5°C° 0 mm 13 m/s 748 mmHg 60%

    18 Dezembro, Segunda-feira

    Tempo Temperatura Precipitação Vento Pressão Humidade
    00:00 +5°C° 0 mm 13 m/s 749 mmHg 61%
    01:00 +5°C° 0 mm 13 m/s 749 mmHg 61%
    02:00 +5°C° 0 mm 13 m/s 749 mmHg 62%
    03:00 +5°C° 0 mm 13 m/s 749 mmHg 63%
    04:00 +5°C° 0 mm 13 m/s 750 mmHg 64%
    05:00 +7°C° 0 mm 13 m/s 750 mmHg 60%
    06:00 +8°C° 0 mm 13 m/s 751 mmHg 55%
    07:00 +9°C° 0 mm 14 m/s 751 mmHg 51%
    08:00 +10°C° 0 mm 13 m/s 751 mmHg 49%
    09:00 +10°C° 0 mm 13 m/s 751 mmHg 46%
    10:00 +12°C° 0 mm 13 m/s 751 mmHg 44%
    11:00 +12°C° 0 mm 12 m/s 751 mmHg 43%
    12:00 +13°C° 0 mm 11 m/s 751 mmHg 41%
    13:00 +13°C° 0 mm 11 m/s 751 mmHg 40%
    14:00 +13°C° 0,1 mm 10 m/s 751 mmHg 41%
    15:00 +13°C° 0,1 mm 10 m/s 751 mmHg 42%
    16:00 +13°C° 0,1 mm 9 m/s 751 mmHg 42%
    17:00 +12°C° 0,1 mm 8 m/s 752 mmHg 46%
    18:00 +12°C° 0,1 mm 7 m/s 752 mmHg 49%
    19:00 +11°C° 0,1 mm 6 m/s 752 mmHg 53%
    20:00 +10°C° 0 mm 5 m/s 752 mmHg 56%
    21:00 +10°C° 0 mm 4 m/s 753 mmHg 59%
    22:00 +9°C° 0 mm 3 m/s 753 mmHg 63%
    23:00 +9°C° 0 mm 3 m/s 752 mmHg 64%

    19 Dezembro, Terça-feira

    Tempo Temperatura Precipitação Vento Pressão Humidade
    00:00 +9°C° 0 mm 3 m/s 752 mmHg 66%
    01:00 +8°C° 0 mm 3 m/s 752 mmHg 67%
    02:00 +8°C° 0 mm 5 m/s 751 mmHg 66%
    03:00 +8°C° 0 mm 6 m/s 751 mmHg 66%
    04:00 +9°C° 0 mm 7 m/s 750 mmHg 65%
    05:00 +8°C° 0 mm 9 m/s 749 mmHg 63%
    06:00 +9°C° 0 mm 10 m/s 749 mmHg 61%
    07:00 +10°C° 0 mm 12 m/s 748 mmHg 59%
    08:00 +13°C° 0 mm 11 m/s 747 mmHg 57%
    09:00 +14°C° 0 mm 10 m/s 747 mmHg 56%
    10:00 +17°C° 0 mm 9 m/s 746 mmHg 54%
    11:00 +17°C° 0 mm 7 m/s 745 mmHg 53%
    12:00 +19°C° 0 mm 6 m/s 744 mmHg 52%
    13:00 +19°C° 0 mm 4 m/s 744 mmHg 50%
    14:00 +19°C° 0 mm 4 m/s 743 mmHg 52%
    15:00 +18°C° 0 mm 4 m/s 743 mmHg 54%
    16:00 +18°C° 0 mm 4 m/s 743 mmHg 56%
    17:00 +17°C° 0 mm 4 m/s 743 mmHg 60%
    18:00 +17°C° 0 mm 4 m/s 743 mmHg 63%
    19:00 +15°C° 0 mm 4 m/s 743 mmHg 67%
    20:00 +14°C° 0 mm 3 m/s 743 mmHg 67%
    21:00 +14°C° 0 mm 3 m/s 742 mmHg 68%
    22:00 +14°C° 0 mm 2 m/s 742 mmHg 68%
    23:00 +14°C° 0 mm 2 m/s 742 mmHg 69%

    20 Dezembro, Quarta-feira

    Tempo Temperatura Precipitação Vento Pressão Humidade
    00:00 +14°C° 0 mm 2 m/s 741 mmHg 70%
    01:00 +12°C° 0 mm 3 m/s 741 mmHg 70%
    02:00 +12°C° 0 mm 3 m/s 740 mmHg 73%
    03:00 +12°C° 0 mm 4 m/s 740 mmHg 75%
    04:00 +11°C° 0 mm 4 m/s 739 mmHg 77%
    05:00 +10°C° 0 mm 5 m/s 739 mmHg 75%
    06:00 +10°C° 0 mm 6 m/s 739 mmHg 73%
    07:00 +9°C° 0 mm 7 m/s 738 mmHg 71%
    08:00 +9°C° 0,6 mm 6 m/s 738 mmHg 72%
    09:00 +8°C° 0,6 mm 6 m/s 738 mmHg 72%
    10:00 +8°C° 0,6 mm 6 m/s 738 mmHg 72%
    11:00 +8°C° 0,5 mm 6 m/s 738 mmHg 67%
    12:00 +9°C° 0,5 mm 7 m/s 738 mmHg 61%
    13:00 +10°C° 0,5 mm 7 m/s 737 mmHg 56%
    14:00 +10°C° 0,1 mm 8 m/s 738 mmHg 53%
    15:00 +11°C° 0,1 mm 9 m/s 738 mmHg 50%
    16:00 +11°C° 0,1 mm 10 m/s 738 mmHg 47%
    17:00 +9°C° 0 mm 10 m/s 739 mmHg 49%
    18:00 +9°C° 0 mm 10 m/s 739 mmHg 50%
    19:00 +8°C° 0 mm 10 m/s 739 mmHg 52%
    20:00 +7°C° 0 mm 10 m/s 740 mmHg 56%
    21:00 +6°C° 0 mm 10 m/s 740 mmHg 59%
    22:00 +5°C° 0 mm 10 m/s 741 mmHg 63%
    23:00 +5°C° 0 mm 9 m/s 741 mmHg 63%
    Mostrar mais